MPEC 2008-E45 : 2008 ES5

The following Minor Planet Electronic Circular may be linked-to from your own Web pages, but must not otherwise be redistributed electronically.


Read MPEC 2008-E44 Read MPEC 2008-E46


M.P.E.C. 2008-E45                                Issued 2008 Mar. 5, 00:02 UT

     The Minor Planet Electronic Circulars contain information on unusual
         minor planets and routine data on comets.  They are published
   on behalf of Commission 20 of the International Astronomical Union by the
          Minor Planet Center, Smithsonian Astrophysical Observatory,
                          Cambridge, MA 02138, U.S.A.

             Prepared using the Tamkin Foundation Computer Network

                              MPC@CFA.HARVARD.EDU
          URL http://www.cfa.harvard.edu/iau/mpc.html  ISSN 1523-6714

                                   2008 ES5

Observations:
     K08E05S* C2008 03 03.32795 10 14 47.76 +32 31 15.3          20.3 V EE045G96
     K08E05S  C2008 03 03.33050 10 14 48.73 +32 30 55.3          20.9 V EE045G96
     K08E05S  C2008 03 03.33301 10 14 49.77 +32 30 35.6          21.3 V EE045G96
     K08E05S  C2008 03 03.33559 10 14 50.67 +32 30 15.8          20.4 V EE045G96
     K08E05S  C2008 03 03.39832 10 15 15.09 +32 21 52.7          20.3 V EE045G96
     K08E05S  C2008 03 03.40085 10 15 16.14 +32 21 31.8          20.7 V EE045G96
     K08E05S  C2008 03 03.40588 10 15 18.02 +32 20 51.7          20.3 V EE045G96
     K08E05S EC2008 03 03.84581 10 18 21.97 +31 25 45.1          20.9 R EE045J95
     K08E05S EC2008 03 03.86026 10 18 27.06 +31 24 04.3                 EE045J95
     K08E05S EC2008 03 03.87546 10 18 32.43 +31 22 18.9          20.3 R EE045J95
     K08E05S  C2008 03 04.38774 10 21 24.57 +30 25 34.8                 EE045G96
     K08E05S  C2008 03 04.38829 10 21 24.70 +30 25 31.0                 EE045G96
     K08E05S  C2008 03 04.38884 10 21 24.90 +30 25 27.6                 EE045G96
     K08E05S  C2008 03 04.38939 10 21 25.11 +30 25 24.6          21.0 V EE045G96

Observer details:
G96 Mt. Lemmon Survey.  Observers E. Beshore, A. Boattini.  Measurers
    E. C. Beshore, A. Boattini, G. J. Garradd, A. R. Gibbs, A. D. Grauer,
    R. E. Hill, R. A. Kowalski, S. M. Larson, R. H. McNaught.  1.5-m reflector
    + CCD.
J95 Great Shefford.  Observer P. Birtwhistle.  0.40-m f/6.0 Schmidt-Cassegrain
    + CCD.

Orbital elements:
2008 ES5                                                 Earth MOID = 0.0176 AU
Epoch 2008 May 14.0 TT = JDT 2454600.5                  MPC
M  43.51665              (2000.0)            P               Q
n   0.35175065     Peri.  300.66455     +0.17707845     -0.98315859
a   1.9875258      Node   139.05768     +0.92493805     +0.15054808
e   0.6449473      Incl.    3.95458     +0.33635224     +0.10360730
P   2.80           H   24.8           G   0.15           U   8
Residuals in seconds of arc
080303 G96  0.3+  0.7-    080303 G96  0.4+  0.3-    080304 G96  0.0   0.0
080303 G96  0.0   0.3-    080303 G96  0.6-  0.1-    080304 G96  0.5-  0.3-
080303 G96  0.8+  0.1+    080303 J95  0.1-  0.3+    080304 G96  0.0   0.1-
080303 G96  0.5-  1.0+    080303 J95  0.3-  0.2-    080304 G96  0.6+  0.5+
080303 G96  0.3-  0.4+    080303 J95  0.4+  0.2-

Ephemeris:
2008 ES5                 a,e,i = 1.99, 0.64, 4                   q = 0.7057
Date    TT    R. A. (2000) Decl.     Delta      r     Elong.  Phase     V
2008 03 05    10 24.57   +29 24.6    0.0984   1.082   154.9    22.9    21.0
2008 03 06    10 28.81   +27 58.2    0.108    1.092   155.9    21.8    21.2
2008 03 07    10 32.27   +26 45.4    0.119    1.102   156.6    20.9    21.4
2008 03 08    10 35.15   +25 43.1    0.129    1.113   157.1    20.3    21.6
2008 03 09    10 37.59   +24 49.1    0.139    1.123   157.4    19.9    21.8
2008 03 10    10 39.69   +24 01.8    0.150    1.133   157.6    19.5    21.9
2008 03 11    10 41.52   +23 19.9    0.160    1.143   157.6    19.3    22.1
2008 03 12    10 43.14   +22 42.4    0.171    1.154   157.6    19.2    22.2
2008 03 13    10 44.59   +22 08.7    0.182    1.164   157.4    19.1    22.4
2008 03 14    10 45.89   +21 38.0    0.193    1.174   157.2    19.1    22.5
2008 03 15    10 47.08   +21 09.9    0.204    1.185   156.9    19.2    22.7

Timothy B. Spahr             (C) Copyright 2008 MPC           M.P.E.C. 2008-E45

Read MPEC 2008-E44 Read MPEC 2008-E46


Our Web policy. Index to the CBAT/MPC/ICQ pages.

MPC

Valid HTML 4.01!